Meridian NAS, MS

9:06 AM CST on January 18, 2018 (GMT -0600)
Meridian Naval Air Station

Weather History for KNMM - April, 2012

Change the Weather History Date:

Monday, April 23, 2012

  Actual Average Record
Temperature  
Mean Temperature 55 °F -  
Max Temperature 64 °F 74 °F 88 °F (2009)
Min Temperature 44 °F 53 °F 43 °F (1998)
Degree Days  
Heating Degree Days 10    
Growing Degree Days 5 (Base 50)    
Moisture  
Dew Point 36 °F    
Average Humidity 56    
Maximum Humidity 89    
Minimum Humidity 26    
Precipitation  
Precipitation 0.00 in - - ()
Sea Level Pressure  
Sea Level Pressure 30.06 in    
Wind  
Wind Speed 10 mph (NW)    
Max Wind Speed 18 mph    
Max Gust Speed 26 mph    
Visibility 10 miles    
Events      
Averages and records for this station are not official NWS values.
T = Trace of Precipitation, MM = Missing Value Source: NWS Daily Summary

Daily Weather History Graph

Daily Weather History Graph

Search for Another Location

Airport or City:

Trip Planner

Search our weather history database for the weather conditions in past years. The results will help you decide how hot, cold, wet, or windy it might be!

Date:

Astronomy

Apr. 23, 2012 Rise Set
Actual Time 6:15 AM CDT 7:30 PM CDT
Civil Twilight 5:49 AM CDT 7:55 PM CDT
Nautical Twilight 5:18 AM CDT 8:26 PM CDT
Astronomical Twilight 4:47 AM CDT 8:58 PM CDT
Moon 7:33 AM CDT (4/23) 9:52 PM CDT (4/23)
Length of Visible Light 14h 06m
Length of Day
13h 15m
Waxing Crescent, 5% of the Moon is Illuminated
Apr 23
Waxing Crescent
Apr 29
First Quarter
May 5
Full
May 12
Last Quarter
May 20
New

Hourly Weather History & Observations

Time (CDT) Temp. Windchill Dew Point Humidity Pressure Visibility Wind Dir Wind Speed Gust Speed Precip Events Conditions
12:56 AM 53.1 °F - 44.1 °F 71% 30.01 in 10.0 mi NW 8.1 mph - N/A   Clear
1:56 AM 51.1 °F - 45.0 °F 80% 30.01 in 10.0 mi WNW 9.2 mph - N/A   Clear
2:56 AM 50.0 °F - 45.0 °F 83% 30.01 in 10.0 mi NW 9.2 mph - N/A   Clear
3:56 AM 48.9 °F - 44.1 °F 83% 30.03 in 10.0 mi NW 9.2 mph - N/A   Clear
4:56 AM 46.9 °F - 43.0 °F 86% 30.04 in 10.0 mi NW 6.9 mph - N/A   Clear
5:56 AM 46.0 °F 42.5 °F 43.0 °F 89% 30.05 in 10.0 mi NW 6.9 mph - N/A   Clear
6:56 AM 46.9 °F - 43.0 °F 86% 30.07 in 10.0 mi NW 10.4 mph - N/A   Clear
7:56 AM 51.1 °F - 39.9 °F 66% 30.08 in 10.0 mi NW 12.7 mph - N/A   Clear
8:56 AM 55.0 °F - 33.1 °F 43% 30.09 in 10.0 mi NNW 15.0 mph 24.2 mph N/A   Clear
9:56 AM 55.9 °F - 30.9 °F 39% 30.10 in 10.0 mi NW 18.4 mph 26.5 mph N/A   Clear
10:56 AM 57.9 °F - 30.9 °F 36% 30.11 in 10.0 mi North 15.0 mph 24.2 mph N/A   Clear
11:56 AM 60.1 °F - 32.0 °F 35% 30.10 in 10.0 mi NW 12.7 mph 25.3 mph N/A   Clear
12:56 PM 61.0 °F - 32.0 °F 34% 30.09 in 10.0 mi NNW 11.5 mph - N/A   Partly Cloudy
1:56 PM 63.0 °F - 30.9 °F 30% 30.07 in 10.0 mi NNW 18.4 mph 24.2 mph N/A   Partly Cloudy
2:56 PM 64.0 °F - 30.9 °F 29% 30.05 in 10.0 mi NNW 16.1 mph - N/A   Partly Cloudy
3:56 PM 64.9 °F - 30.0 °F 27% 30.03 in 10.0 mi NW 15.0 mph - N/A   Partly Cloudy
4:56 PM 64.9 °F - 28.9 °F 26% 30.03 in 10.0 mi NW 16.1 mph 25.3 mph N/A   Clear
5:56 PM 63.0 °F - 30.0 °F 29% 30.03 in 10.0 mi NW 15.0 mph 23.0 mph N/A   Clear
6:56 PM 61.0 °F - 32.0 °F 34% 30.04 in 10.0 mi NW 10.4 mph - N/A   Clear
7:56 PM 55.0 °F - 35.1 °F 47% 30.05 in 10.0 mi NW 5.8 mph - N/A   Clear
8:56 PM 51.1 °F - 37.0 °F 59% 30.07 in 10.0 mi NW 4.6 mph - N/A   Clear
9:56 PM 48.0 °F - 37.9 °F 68% 30.09 in 10.0 mi West 3.5 mph - N/A   Clear
10:56 PM 46.0 °F 44.8 °F 39.0 °F 76% 30.09 in 10.0 mi West 3.5 mph - N/A   Clear
11:56 PM 44.1 °F 41.5 °F 37.9 °F 79% 30.08 in 10.0 mi West 4.6 mph - N/A   Clear